Location: Kermapucano
(48.0667°N, 3.3000°W)
Time: 19:39:14
(UTC+00:00)

Cosmos 1437 Rocket - Pass Details

Date: 29 November 2020
Orbit: 505 x 563 km, 81.2° (Epoch: 27 January)

Event Time Altitude Azimuth Distance (km) Brightness Sun altitude
Exits shadow 06:09:36 - 349° (N) 2,124 5.5 -14.6°
Reaches altitude 10° 06:10:32 10° 349° (N) 1,737 5.1 -14.4°
Maximum altitude 06:14:21 85° 79° (E) 515 2.6 -13.8°
Drops below altitude 10° 06:18:07 10° 168° (SSE) 1,714 5.7 -13.2°
Sets 06:20:13 0° 169° (S) 2,594 6.7 -12.9°
